STARLINK-35924

Last updated on Fri Dec 19 2025 00:02:05 GMT+0000 (Coordinated Universal Time)

1 66516U 25265A 25352.49187919 .00042984 00000+0 10295-2 0 9994 2 66516 43.0019 20.9780 0001640 266.3372 93.7297 15.40727842 4640
UTC large
Height (km)
Speed (km/s)
/
Latitude / Longitude
Inclination (degrees)
Orbital Period (minutes)
Azimuth
Elevation
Range (km)
Doppler Factor

Next 0 passes for location: London (51.5072 / 0.1276)

Sorry there are no passes over London.